When you browse on this site, cookies collect data to enhance your experience and personalize the content and advertising you see.
Visit our Privacy Policy to learn more. By continuing to use the site, you agree to this use of cookies and data.
  • în România
  • Lista ţărilor
  • Pe 7 zile
  • Temperatura apei
  • Hartă satelitară
  • Meteo pe hartă
  • Widget-uri
  • user-avatar
    Intrare

    Meteo pe oră la Slepnevo

    Astăzi, 21 Iulie, Duminică

    Timp Temperatura Precipitaţii Vânt Presiune Umiditate
    00:00 +14°C° 0 mm 1 m/s 747 mmHg 98%
    01:00 +13°C° 0 mm 1 m/s 747 mmHg 98%
    02:00 +13°C° 0 mm 1 m/s 748 mmHg 98%
    03:00 +13°C° 0 mm 1 m/s 748 mmHg 98%
    04:00 +13°C° 0 mm 1 m/s 748 mmHg 98%
    05:00 +14°C° 0 mm 1 m/s 748 mmHg 98%
    06:00 +15°C° 0 mm 1 m/s 748 mmHg 94%
    07:00 +18°C° 0 mm 1 m/s 748 mmHg 90%
    08:00 +19°C° 0 mm 1 m/s 748 mmHg 85%
    09:00 +21°C° 0 mm 1 m/s 749 mmHg 76%
    10:00 +23°C° 0 mm 1 m/s 749 mmHg 67%
    11:00 +24°C° 0 mm 1 m/s 749 mmHg 58%
    12:00 +25°C° 0.2 mm 1 m/s 749 mmHg 58%
    13:00 +25°C° 0.2 mm 1 m/s 748 mmHg 58%
    14:00 +25°C° 0.2 mm 1 m/s 748 mmHg 57%
    15:00 +24°C° 0.7 mm 1 m/s 748 mmHg 67%
    16:00 +24°C° 0.7 mm 1 m/s 748 mmHg 76%
    17:00 +23°C° 0.7 mm 1 m/s 748 mmHg 85%
    18:00 +21°C° 0.2 mm 1 m/s 748 mmHg 87%
    19:00 +20°C° 0.2 mm 1 m/s 748 mmHg 89%
    20:00 +16°C° 0.2 mm 0 m/s 748 mmHg 91%
    21:00 +15°C° 0 mm 0 m/s 748 mmHg 91%
    22:00 +15°C° 0 mm 0 m/s 748 mmHg 92%
    23:00 +14°C° 0 mm 0 m/s 748 mmHg 92%

    Mâine, 22 Iulie, Luni

    Timp Temperatura Precipitaţii Vânt Presiune Umiditate
    00:00 +13°C° 0 mm 0 m/s 748 mmHg 92%
    01:00 +13°C° 0 mm 0 m/s 748 mmHg 93%
    02:00 +13°C° 0 mm 0 m/s 748 mmHg 93%
    03:00 +13°C° 0 mm 0 m/s 748 mmHg 93%
    04:00 +13°C° 0 mm 0 m/s 747 mmHg 93%
    05:00 +13°C° 0 mm 0 m/s 747 mmHg 93%
    06:00 +15°C° 0 mm 0 m/s 747 mmHg 88%
    07:00 +17°C° 0 mm 0 m/s 747 mmHg 83%
    08:00 +21°C° 0 mm 1 m/s 747 mmHg 78%
    09:00 +23°C° 0 mm 1 m/s 747 mmHg 70%
    10:00 +24°C° 0 mm 1 m/s 747 mmHg 61%
    11:00 +26°C° 0 mm 1 m/s 747 mmHg 53%
    12:00 +26°C° 0 mm 1 m/s 747 mmHg 52%
    13:00 +26°C° 0 mm 1 m/s 746 mmHg 51%
    14:00 +24°C° 0 mm 0 m/s 746 mmHg 50%
    15:00 +26°C° 0 mm 1 m/s 746 mmHg 55%
    16:00 +25°C° 0 mm 1 m/s 746 mmHg 60%
    17:00 +25°C° 0 mm 1 m/s 746 mmHg 65%
    18:00 +23°C° 0.1 mm 1 m/s 746 mmHg 71%
    19:00 +21°C° 0.1 mm 1 m/s 746 mmHg 77%
    20:00 +20°C° 0.1 mm 1 m/s 746 mmHg 83%
    21:00 +19°C° 0 mm 1 m/s 746 mmHg 86%
    22:00 +18°C° 0 mm 1 m/s 746 mmHg 88%
    23:00 +16°C° 0 mm 1 m/s 746 mmHg 90%

    Poimâine, 23 Iulie, Marţi

    Timp Temperatura Precipitaţii Vânt Presiune Umiditate
    00:00 +16°C° 0 mm 1 m/s 746 mmHg 91%
    01:00 +15°C° 0 mm 1 m/s 746 mmHg 92%
    02:00 +15°C° 0 mm 1 m/s 745 mmHg 94%
    03:00 +15°C° 0 mm 1 m/s 746 mmHg 93%
    04:00 +15°C° 0 mm 1 m/s 746 mmHg 93%
    05:00 +16°C° 0 mm 1 m/s 746 mmHg 92%
    06:00 +18°C° 0.1 mm 1 m/s 746 mmHg 88%
    07:00 +20°C° 0.1 mm 1 m/s 746 mmHg 83%
    08:00 +20°C° 0.1 mm 2 m/s 746 mmHg 78%
    09:00 +21°C° 0.4 mm 2 m/s 746 mmHg 73%
    10:00 +23°C° 0.4 mm 2 m/s 746 mmHg 68%
    11:00 +24°C° 0.4 mm 3 m/s 746 mmHg 63%
    12:00 +25°C° 0.2 mm 3 m/s 746 mmHg 60%
    13:00 +25°C° 0.2 mm 2 m/s 746 mmHg 57%
    14:00 +26°C° 0.2 mm 2 m/s 746 mmHg 55%
    15:00 +25°C° 0.4 mm 2 m/s 746 mmHg 62%
    16:00 +24°C° 0.4 mm 2 m/s 746 mmHg 69%
    17:00 +24°C° 0.4 mm 2 m/s 746 mmHg 76%
    18:00 +22°C° 0.2 mm 1 m/s 746 mmHg 80%
    19:00 +20°C° 0.2 mm 1 m/s 746 mmHg 85%
    20:00 +19°C° 0.2 mm 1 m/s 746 mmHg 89%
    21:00 +18°C° 0 mm 1 m/s 746 mmHg 90%
    22:00 +16°C° 0 mm 1 m/s 747 mmHg 90%
    23:00 +15°C° 0 mm 1 m/s 747 mmHg 91%

    24 Iulie, Miercuri

    Timp Temperatura Precipitaţii Vânt Presiune Umiditate
    00:00 +15°C° 0 mm 1 m/s 747 mmHg 92%
    01:00 +14°C° 0 mm 1 m/s 747 mmHg 92%
    02:00 +14°C° 0 mm 1 m/s 747 mmHg 93%
    03:00 +14°C° 0 mm 1 m/s 747 mmHg 92%
    04:00 +14°C° 0 mm 1 m/s 747 mmHg 92%
    05:00 +14°C° 0 mm 1 m/s 747 mmHg 91%
    06:00 +16°C° 0 mm 1 m/s 747 mmHg 84%
    07:00 +19°C° 0 mm 1 m/s 748 mmHg 76%
    08:00 +21°C° 0 mm 1 m/s 748 mmHg 68%
    09:00 +21°C° 0 mm 2 m/s 748 mmHg 60%
    10:00 +24°C° 0 mm 2 m/s 748 mmHg 52%
    11:00 +26°C° 0 mm 2 m/s 748 mmHg 44%
    12:00 +26°C° 0 mm 2 m/s 748 mmHg 43%
    13:00 +26°C° 0 mm 2 m/s 748 mmHg 42%
    14:00 +26°C° 0 mm 2 m/s 748 mmHg 42%
    15:00 +26°C° 0 mm 2 m/s 748 mmHg 46%
    16:00 +26°C° 0 mm 2 m/s 748 mmHg 49%
    17:00 +25°C° 0 mm 2 m/s 748 mmHg 53%
    18:00 +23°C° 0 mm 1 m/s 748 mmHg 61%
    19:00 +21°C° 0 mm 1 m/s 748 mmHg 69%
    20:00 +19°C° 0 mm 1 m/s 748 mmHg 78%
    21:00 +16°C° 0 mm 0 m/s 748 mmHg 79%
    22:00 +15°C° 0 mm 0 m/s 749 mmHg 81%
    23:00 +15°C° 0 mm 0 m/s 749 mmHg 83%

    25 Iulie, Joi

    Timp Temperatura Precipitaţii Vânt Presiune Umiditate
    00:00 +14°C° 0 mm 0 m/s 749 mmHg 85%
    01:00 +14°C° 0 mm 0 m/s 749 mmHg 87%
    02:00 +13°C° 0 mm 0 m/s 749 mmHg 89%
    03:00 +14°C° 0 mm 0 m/s 749 mmHg 88%
    04:00 +14°C° 0 mm 0 m/s 749 mmHg 88%
    05:00 +14°C° 0 mm 0 m/s 749 mmHg 87%
    06:00 +16°C° 0 mm 0 m/s 750 mmHg 80%
    07:00 +18°C° 0 mm 0 m/s 750 mmHg 73%
    08:00 +22°C° 0 mm 1 m/s 750 mmHg 66%
    09:00 +23°C° 0 mm 1 m/s 750 mmHg 60%
    10:00 +25°C° 0 mm 1 m/s 750 mmHg 55%
    11:00 +27°C° 0 mm 1 m/s 750 mmHg 49%
    12:00 +27°C° 0 mm 1 m/s 750 mmHg 49%
    13:00 +27°C° 0 mm 1 m/s 750 mmHg 48%
    14:00 +27°C° 0 mm 1 m/s 750 mmHg 48%
    15:00 +27°C° 0 mm 2 m/s 750 mmHg 51%
    16:00 +27°C° 0 mm 2 m/s 749 mmHg 53%
    17:00 +26°C° 0 mm 2 m/s 749 mmHg 56%
    18:00 +25°C° 0 mm 2 m/s 749 mmHg 66%
    19:00 +23°C° 0 mm 2 m/s 750 mmHg 75%
    20:00 +20°C° 0 mm 2 m/s 750 mmHg 85%
    21:00 +19°C° 0 mm 2 m/s 750 mmHg 89%
    22:00 +19°C° 0 mm 1 m/s 750 mmHg 93%
    23:00 +18°C° 0 mm 1 m/s 750 mmHg 97%

    26 Iulie, Vineri

    Timp Temperatura Precipitaţii Vânt Presiune Umiditate
    00:00 +18°C° 0 mm 1 m/s 750 mmHg 97%
    01:00 +16°C° 0 mm 1 m/s 750 mmHg 97%
    02:00 +16°C° 0 mm 1 m/s 750 mmHg 97%
    03:00 +15°C° 0 mm 2 m/s 750 mmHg 94%
    04:00 +14°C° 0 mm 2 m/s 750 mmHg 92%
    05:00 +14°C° 0 mm 2 m/s 750 mmHg 90%
    06:00 +15°C° 0 mm 2 m/s 751 mmHg 82%
    07:00 +17°C° 0 mm 2 m/s 751 mmHg 73%
    08:00 +19°C° 0 mm 2 m/s 751 mmHg 65%
    09:00 +20°C° 0 mm 3 m/s 751 mmHg 60%
    10:00 +22°C° 0 mm 3 m/s 751 mmHg 55%
    11:00 +24°C° 0 mm 3 m/s 751 mmHg 50%
    12:00 +25°C° 0 mm 3 m/s 750 mmHg 49%
    13:00 +25°C° 0 mm 3 m/s 750 mmHg 48%
    14:00 +25°C° 0 mm 3 m/s 750 mmHg 48%
    15:00 +25°C° 0 mm 3 m/s 750 mmHg 50%
    16:00 +24°C° 0 mm 3 m/s 749 mmHg 53%
    17:00 +24°C° 0 mm 3 m/s 749 mmHg 56%
    18:00 +21°C° 0 mm 3 m/s 749 mmHg 63%
    19:00 +19°C° 0 mm 2 m/s 749 mmHg 71%
    20:00 +17°C° 0 mm 2 m/s 749 mmHg 78%
    21:00 +16°C° 0 mm 1 m/s 749 mmHg 79%
    22:00 +15°C° 0 mm 1 m/s 749 mmHg 81%
    23:00 +14°C° 0 mm 1 m/s 749 mmHg 82%
    Arată mai mult